Wind_Speed
36 38 40 42 43 46 47 49 50 52 54 55 56 56 58 59 60 61 61 61 60 59 58 56 55 53 51 50 50 50 49 49 48 48 48 48 48 47 46 45 45 45 45
33 34 35 37 39 41 43 45 47 49 51 52 53 54 54 56 57 58 59 61 61 60 59 57 56 54 53 51 52 51 51 51 50 50 50 50 49 48 48 48 47 47 46
29 30 31 33 34 36 37 40 42 44 47 49 51 52 52 52 54 55 56 58 59 59 59 59 57 56 54 54 53 52 50 51 51 52 52 50 49 49 48 48 48 47 46
26 27 28 29 29 29 31 33 35 38 41 44 46 47 48 49 50 51 51 53 56 57 57 57 57 56 55 54 54 53 52 52 52 52 52 51 50 51 50 50 48 48 47
21 22 22 23 24 25 25 26 27 30 33 37 40 42 43 45 47 48 48 49 51 52 54 55 56 56 56 55 54 53 53 52 53 53 52 51 51 50 51 50 49 49 48
15 17 18 19 19 21 21 22 22 24 27 30 34 38 40 41 43 44 45 46 48 49 50 53 54 55 55 56 56 54 54 53 53 53 52 52 52 51 50 50 51 52 51
12 13 13 15 16 18 19 19 20 21 23 26 29 33 35 37 38 40 42 43 45 46 48 51 52 52 53 54 56 56 55 54 54 53 53 54 54 54 54 53 53 54 54
11 11 11 11 11 12 13 14 15 17 19 22 24 27 30 31 32 35 38 40 41 43 45 46 49 50 51 52 54 56 55 55 55 54 54 54 55 55 55 54 54 54 53
10 10 10 10 9 9 10 11 11 13 15 18 20 22 25 27 28 30 33 35 36 37 41 43 45 47 48 50 52 54 55 56 56 55 54 54 55 54 54 54 54 54 53
11 10 10 9 8 8 8 8 9 10 12 14 16 19 21 23 25 27 29 31 33 34 36 38 41 44 46 49 50 52 53 55 56 56 56 56 56 56 55 54 54 54 53
11 10 10 9 9 8 9 8 8 9 11 12 14 16 18 21 23 25 27 29 31 33 34 36 39 41 43 45 48 50 51 54 55 56 57 57 57 57 56 56 57 57 56
12 11 10 10 10 10 9 8 8 8 9 11 12 14 17 20 23 25 27 29 32 34 35 37 39 42 43 45 47 48 50 51 54 56 57 58 58 58 58 58 57 56 56
13 13 12 11 10 10 10 9 9 9 10 12 13 14 16 18 21 23 26 28 31 33 35 38 40 42 43 44 46 48 51 52 54 55 57 58 59 59 60 59 59 58 58
13 13 12 11 11 11 11 11 11 11 12 14 15 16 18 20 22 24 26 28 31 33 35 38 40 41 43 44 46 48 52 54 54 56 57 59 60 60 61 61 62 62 61
14 13 13 13 13 13 13 13 13 14 15 16 17 19 20 22 24 25 28 30 32 34 36 38 40 42 44 47 48 50 51 54 55 56 58 59 61 62 62 63 63 63 63
15 15 15 15 15 15 16 16 16 17 17 18 19 20 22 23 25 26 29 31 33 35 37 40 42 44 47 49 51 52 53 55 56 57 58 59 61 63 63 64 64 64 64
17 17 17 17 18 19 19 21 21 21 22 22 22 24 25 26 27 29 30 32 34 37 39 41 44 46 49 51 52 54 56 57 58 59 60 60 61 62 63 63 63 64 64
18 19 20 20 21 22 23 23 24 24 25 26 27 28 29 30 31 32 34 36 37 39 41 44 46 48 50 52 54 56 57 58 60 61 61 61 61 62 63 64 65 65 65
21 22 22 23 24 25 26 26 26 27 28 29 30 32 33 34 35 36 38 39 41 43 45 47 50 51 53 55 56 57 58 58 59 60 61 61 62 63 65 66 67 67 67
23 24 25 25 26 27 27 28 29 30 31 32 33 35 36 37 39 40 42 44 45 47 49 50 51 53 54 55 55 56 57 57 57 58 60 60 61 62 63 64 65 66 66
25 26 26 27 28 28 29 30 32 33 34 35 36 37 39 41 43 44 46 47 49 50 51 51 52 53 54 55 55 56 57 57 57 57 59 60 61 62 62 62 63 64 64
28 29 29 30 31 31 32 34 35 36 37 38 39 40 42 44 46 47 48 50 51 51 52 52 53 53 54 54 54 55 56 56 56 57 58 59 60 61 61 62 62 62 63
31 32 32 33 34 35 36 37 38 39 40 41 42 44 45 46 48 49 50 51 52 52 52 53 53 52 52 52 52 53 54 55 55 56 57 58 58 59 60 61 62 62 61
33 34 34 35 36 36 37 38 39 40 41 42 44 45 46 48 49 50 51 51 52 52 52 52 52 51 51 51 51 52 52 52 53 53 55 56 57 58 59 59 60 61 60
34 35 36 36 36 37 38 39 40 41 43 44 45 46 47 48 49 50 50 51 52 52 52 51 50 49 49 49 49 49 49 49 50 50 51 53 55 56 57 57 58 58 57
35 36 36 37 37 38 39 40 42 43 44 45 45 47 48 49 49 50 50 51 51 51 50 50 48 48 48 47 47 47 47 47 48 48 48 49 50 51 52 52 51 51 52
Wind_Direction
268 268 266 265 264 262 260 259 257 255 252 250 249 248 247 246 246 246 246 246 245 243 243 242 243 243 245 246 247 247 248 250 252 254 254 254 254 255 257 258 260 261 261
269 269 269 267 266 263 259 258 256 254 251 250 248 248 247 246 246 246 246 245 245 243 242 242 242 243 244 244 246 247 248 249 251 254 255 254 255 256 257 259 260 261 262
271 271 271 270 269 264 261 258 255 253 251 249 247 246 245 246 245 245 245 244 244 244 243 242 242 242 243 245 245 246 246 250 251 252 254 255 256 257 259 260 260 260 261
273 274 272 270 269 265 263 260 258 254 251 248 246 245 245 245 245 245 245 244 243 243 243 242 242 242 242 244 245 246 248 249 250 251 253 255 257 258 259 259 260 260 260
276 277 275 272 269 268 266 262 259 255 252 248 245 243 242 243 243 243 243 244 243 243 243 242 242 242 243 243 244 246 247 248 250 251 253 255 256 258 259 260 260 261 262
282 282 281 278 274 271 267 264 261 257 253 248 244 243 243 245 244 244 244 243 243 242 242 242 242 242 243 244 245 248 247 249 251 252 252 254 256 259 259 260 261 261 261
294 290 286 283 279 273 268 265 263 257 253 248 245 243 243 245 246 245 244 244 243 243 243 242 242 243 244 244 246 249 249 250 253 253 254 255 257 258 258 260 262 262 262
307 302 296 296 288 278 271 267 266 260 253 249 247 245 244 245 246 246 245 244 245 244 244 244 244 246 246 247 247 248 249 251 253 254 254 255 256 257 258 259 261 262 262
320 314 312 310 306 291 278 274 271 262 254 251 249 247 246 246 247 247 246 245 246 246 246 245 246 246 248 248 249 250 251 252 253 254 255 256 256 256 257 259 260 260 261
332 330 327 324 315 306 294 283 269 262 258 253 248 247 248 249 250 251 250 249 250 249 248 247 246 248 249 251 252 252 252 252 253 254 255 257 257 257 259 259 260 261 262
346 342 339 336 332 322 311 299 282 269 265 262 257 253 252 252 252 253 253 253 253 252 252 251 250 251 252 253 253 254 254 254 255 255 256 256 256 257 259 259 260 261 262
348 346 339 333 332 329 325 315 300 289 280 274 268 266 266 265 262 260 259 258 256 255 254 254 253 253 255 256 256 256 257 257 257 257 257 257 258 258 260 260 261 261 262
348 347 341 334 329 327 326 322 312 301 294 288 279 275 273 271 268 265 263 262 260 258 257 257 258 258 259 258 259 259 259 260 260 260 259 259 259 259 259 260 261 261 263
338 340 342 337 333 330 325 322 315 308 300 292 287 284 280 277 273 270 268 266 265 265 264 263 263 263 262 262 262 262 261 261 261 262 261 260 261 260 260 260 261 262 263
331 332 332 332 331 329 324 317 312 307 304 298 290 287 285 284 281 279 275 272 271 271 270 268 268 267 266 266 265 265 265 263 263 263 262 262 261 260 260 260 261 261 261
328 328 325 323 321 322 320 317 313 310 307 304 300 294 292 290 287 285 281 278 277 275 275 274 272 271 270 270 269 268 267 266 265 264 264 263 262 261 260 260 260 260 259
322 321 321 319 317 317 314 312 310 308 306 305 303 300 296 295 292 290 288 285 283 281 279 278 276 276 275 273 272 271 270 268 267 266 265 264 264 263 261 259 258 258 258
318 317 318 317 316 315 313 310 308 307 305 303 301 299 297 296 295 293 292 290 288 286 284 282 281 280 278 276 275 273 272 270 268 267 267 265 265 263 261 260 259 258 259
315 315 314 314 314 313 312 310 308 307 306 304 303 302 300 298 296 295 294 292 291 289 288 286 283 282 280 279 277 275 273 271 270 268 267 266 265 264 263 261 260 260 260
312 312 312 311 311 310 310 309 309 308 306 304 303 302 302 301 299 297 296 295 293 291 290 288 286 284 282 280 279 277 275 273 271 269 268 267 266 265 264 263 261 261 260
311 311 310 310 309 309 309 309 308 308 307 305 303 303 302 302 301 300 298 297 296 294 293 291 289 287 285 284 281 279 277 275 273 271 269 268 266 265 264 263 262 260 260
309 309 309 309 309 308 308 307 307 307 306 306 305 303 303 303 302 301 300 299 297 296 295 293 291 289 288 286 283 281 280 278 275 273 271 269 267 265 264 263 262 261 259
308 308 308 307 307 307 307 307 307 307 307 306 306 305 305 305 304 303 302 302 300 298 297 295 293 291 290 288 286 284 282 279 277 275 273 270 268 266 264 263 261 260 258
307 307 307 307 307 307 308 308 308 308 308 307 307 307 307 307 306 306 305 304 303 301 300 298 295 293 292 290 288 286 284 282 280 277 274 271 269 267 266 264 262 260 258
307 306 307 307 307 308 308 309 310 310 310 310 309 309 309 309 309 308 308 307 306 304 302 300 297 295 294 292 291 289 287 285 283 281 278 273 270 268 266 265 263 260 258
307 307 307 307 308 308 309 310 310 311 311 311 310 310 311 311 310 310 309 309 308 306 304 302 300 298 296 295 293 291 289 287 285 283 281 278 274 270 267 264 262 258 255
Height
5690 5688 5687 5687 5687 5687 5689 5690 5692 5694 5697 5701 5704 5708 5713 5717 5721 5725 5729 5733 5738 5742 5746 5750 5754 5757 5760 5763 5765 5767 5770 5772 5774 5775 5777 5780 5782 5784 5785 5787 5788 5790 5790
5681 5679 5678 5677 5676 5676 5677 5678 5679 5681 5684 5687 5691 5695 5699 5704 5708 5712 5716 5720 5725 5729 5733 5738 5742 5746 5749 5752 5755 5757 5759 5762 5764 5765 5767 5769 5772 5774 5775 5777 5778 5780 5780
5674 5672 5670 5669 5667 5666 5666 5666 5667 5669 5671 5674 5678 5682 5686 5691 5695 5699 5703 5708 5712 5716 5721 5726 5731 5734 5738 5741 5743 5746 5748 5751 5753 5754 5756 5758 5761 5763 5765 5766 5767 5769 5770
5667 5665 5663 5661 5659 5658 5657 5657 5657 5658 5659 5662 5666 5670 5675 5680 5684 5687 5691 5695 5699 5704 5709 5714 5718 5722 5726 5729 5732 5734 5737 5739 5741 5743 5745 5748 5750 5752 5754 5756 5756 5757 5759
5661 5659 5656 5654 5652 5651 5650 5649 5649 5649 5651 5652 5656 5660 5664 5669 5672 5676 5679 5683 5687 5692 5697 5701 5706 5710 5714 5717 5720 5723 5725 5727 5730 5732 5734 5736 5738 5740 5742 5744 5746 5747 5748
5656 5653 5651 5648 5647 5646 5644 5644 5643 5643 5644 5645 5648 5652 5656 5659 5663 5666 5669 5673 5677 5681 5685 5690 5694 5698 5702 5706 5708 5710 5713 5716 5718 5720 5722 5724 5727 5729 5730 5732 5734 5735 5737
5652 5650 5647 5644 5642 5641 5640 5639 5639 5638 5638 5639 5641 5645 5648 5651 5654 5657 5660 5664 5668 5672 5675 5679 5683 5687 5691 5694 5697 5698 5701 5704 5706 5708 5710 5712 5714 5717 5718 5720 5721 5722 5724
5650 5647 5644 5642 5639 5637 5636 5635 5634 5633 5634 5635 5636 5639 5641 5644 5647 5650 5652 5656 5659 5663 5665 5668 5672 5676 5679 5682 5685 5687 5690 5692 5694 5696 5698 5700 5702 5704 5705 5707 5708 5709 5711
5648 5645 5643 5640 5637 5635 5634 5633 5631 5631 5631 5632 5633 5634 5636 5639 5641 5643 5646 5649 5651 5654 5656 5659 5663 5666 5668 5671 5673 5676 5678 5680 5682 5684 5685 5687 5690 5691 5692 5694 5695 5697 5698
5647 5644 5641 5638 5636 5634 5632 5631 5630 5629 5629 5629 5630 5631 5633 5634 5636 5637 5639 5641 5644 5646 5648 5650 5653 5656 5658 5660 5662 5664 5666 5667 5669 5671 5673 5675 5677 5678 5679 5680 5681 5683 5684
5646 5643 5640 5638 5635 5633 5631 5630 5628 5627 5627 5627 5628 5628 5629 5630 5631 5632 5633 5635 5636 5638 5640 5642 5644 5646 5647 5649 5650 5652 5653 5655 5656 5658 5659 5661 5663 5663 5665 5666 5667 5669 5670
5645 5642 5640 5637 5635 5633 5631 5629 5627 5626 5626 5626 5625 5625 5626 5626 5626 5627 5627 5628 5629 5630 5632 5633 5634 5635 5637 5637 5638 5640 5640 5641 5642 5644 5645 5646 5647 5649 5650 5651 5653 5654 5656
5644 5641 5639 5636 5634 5632 5630 5628 5626 5625 5624 5624 5623 5622 5622 5621 5621 5621 5621 5621 5621 5622 5623 5623 5624 5625 5625 5625 5626 5626 5627 5628 5628 5628 5629 5630 5631 5633 5634 5636 5637 5639 5640
5644 5641 5638 5635 5633 5631 5628 5626 5625 5623 5622 5621 5620 5618 5617 5616 5615 5614 5613 5613 5613 5613 5613 5614 5614 5613 5613 5613 5612 5612 5613 5613 5613 5613 5613 5614 5615 5616 5618 5619 5621 5622 5623
5642 5640 5637 5634 5632 5629 5627 5625 5623 5621 5619 5617 5615 5613 5612 5610 5608 5607 5606 5605 5604 5604 5603 5603 5602 5601 5600 5600 5599 5598 5597 5597 5597 5596 5596 5597 5597 5598 5600 5601 5603 5604 5606
5641 5638 5635 5632 5630 5627 5624 5622 5620 5617 5615 5612 5610 5608 5606 5603 5601 5599 5597 5596 5594 5593 5592 5591 5590 5588 5586 5585 5583 5582 5581 5580 5580 5579 5579 5578 5579 5579 5581 5582 5584 5586 5587
5638 5635 5633 5630 5627 5624 5621 5618 5615 5612 5610 5607 5604 5602 5599 5596 5594 5591 5588 5586 5584 5582 5580 5577 5575 5573 5571 5569 5567 5565 5563 5562 5561 5561 5560 5559 5559 5559 5560 5562 5564 5566 5567
5635 5632 5629 5626 5623 5620 5617 5613 5610 5607 5604 5600 5597 5594 5591 5588 5585 5582 5579 5576 5573 5570 5567 5563 5560 5558 5554 5551 5548 5546 5544 5543 5542 5540 5540 5539 5539 5539 5540 5541 5543 5545 5548
5631 5628 5625 5622 5618 5615 5612 5608 5604 5601 5597 5594 5590 5587 5583 5579 5576 5572 5568 5564 5561 5557 5553 5549 5545 5541 5537 5533 5529 5526 5524 5522 5521 5520 5519 5518 5519 5519 5520 5521 5523 5525 5526
5627 5623 5620 5616 5613 5609 5605 5601 5598 5594 5590 5586 5582 5578 5574 5570 5566 5561 5557 5552 5548 5543 5538 5533 5527 5523 5518 5514 5510 5505 5503 5502 5500 5499 5498 5497 5497 5498 5497 5498 5500 5502 5505
5621 5618 5614 5610 5606 5602 5598 5594 5590 5586 5581 5577 5573 5568 5564 5559 5555 5550 5544 5539 5533 5528 5522 5516 5510 5504 5499 5494 5490 5485 5482 5480 5479 5478 5477 5476 5476 5476 5476 5476 5478 5480 5482
5615 5611 5607 5603 5599 5595 5591 5586 5582 5577 5572 5568 5563 5558 5553 5548 5542 5536 5530 5524 5518 5512 5505 5499 5492 5486 5480 5475 5470 5466 5462 5459 5457 5456 5455 5454 5454 5454 5454 5455 5457 5459 5461
5608 5604 5600 5596 5591 5587 5582 5577 5573 5567 5562 5557 5552 5546 5540 5534 5528 5521 5515 5508 5501 5494 5488 5481 5475 5469 5463 5457 5452 5448 5444 5440 5438 5436 5434 5433 5432 5432 5434 5435 5436 5437 5440
5600 5596 5591 5587 5582 5578 5573 5568 5563 5557 5552 5546 5540 5534 5528 5521 5513 5506 5499 5492 5485 5478 5471 5465 5458 5452 5446 5440 5435 5430 5426 5422 5419 5417 5415 5413 5413 5413 5413 5414 5415 5417 5419
5592 5587 5583 5578 5573 5568 5563 5558 5553 5547 5541 5535 5528 5522 5515 5508 5500 5492 5485 5477 5470 5462 5455 5448 5442 5436 5430 5424 5418 5412 5408 5404 5401 5398 5397 5395 5393 5393 5393 5394 5395 5396 5399
5583 5578 5573 5568 5563 5558 5553 5548 5542 5536 5530 5523 5516 5509 5502 5495 5487 5480 5472 5462 5455 5447 5439 5432 5426 5420 5414 5409 5403 5397 5393 5388 5385 5381 5379 5377 5374 5373 5373 5373 5374 5376 5380